Showing default

LUMELITE 4, 56309

Orbit data source: Space-Track

LUMELITE 4, 56309 is a payload satellite owned by NUS (SG) in LEO that was launched on Sat, 22 Apr 2023 UTC via a PSLV launch vehicle from the Sirharikota (SRI). Payload-class satellites include a variety of spacecraft equipped with specific instruments for various scientific and technological missions. These include communications satellites like Starlink; space stations such as the ISS; scientific satellites like the Hubble; Earth observation satellites from companies like Planet Labs, Umbra, and HawkEye 360; GPS; miniature CubeSats for education and research; and military/defense satellites.

Not visible in the next 10 days
Identifier
56309, 2023-057B
Orbit
LEO
Country
Flag of SGSG / SING
Related business
Manufacturer
NUS
Mission
Operational Amateur Technology
Bus & Motor
CUBESAT 12U, Unknown motor
Mass
16 kg wet, 16 kg dry
Launch date (UTC)
2023-04-22 (3 years ago)
Launch vehicle
PSLV
Launch site
Sirharikota (SRI)
Object type
Payload
Rocket body
Debris
Shape & HBR
Box + 2 Pan, 0.2 m
Radar Cross Section
0.200 m², Medium (>0.1 m² and < 1m²)

Expand to show TLE details & history
Last TLE update: 12 hours ago

TLE from 12 hours ago
0 LUMELITE 4
1 56309U 23057B   26093.69537069  .00020795  00000-0  87831-3 0  9998
2 56309   9.9930 264.2204 0004130  80.9863 279.0821 15.20552987162694
Epoch: 2026-04-03T16:41Z
TLE epoch observation values (Epoch: 2026-04-03T16:41:20.027Z)
Latitude
0.00001°
Longitude
-178.13882°
Altitude
500.731 km
Speed
7.618 km/s
True Right ascension
17h 36m 52s
True Declination
0° 00' 00"
Sunlit
Object was in daylight at epoch
Visualization orbit readout
Latitude
Unknown
Longitude
Unknown
Altitude
Unknown
Speed
Unknown
Apparent Right ascension
Unknown
Apparent Declination
Unknown
Sunlit
N/A
Visualization observer readout
Local Sidereal Time
10:49:17
Azimuth
Unknown
Elevation
Unknown
Doppler factor
Unknown
Orbital elements
Apogee altitude
513.135 km
Perigee altitude
507.445 km
Semi-major axis
6,888.427 km
Eccentricity
0.00041
Inclination
9.993°
RAAN
264.2204°
Arg. of periapsis
80.9863°
True anomaly
279.03536°
Mean anomaly
279.0821°
Eccentric anomaly
279.05873°
Mean motion
3.79632 °/min
Orbital period
94.83 mins
BSTAR
0.00087831
Loading maneuver chart data...
Computing Atmospheric mass density...
Loading historical data...
Loading historical data...
Loading historical data...
Loading historical data...
Loading historical data...
Loading historical data...
Loading historical data...
Other satellites on launch #57 in the year 2023 (2023-04-22 UTC)

Documentation

Showing up to 5 results
|